ATLAS 5 CENTAUR DEB, 52045

Orbit data source: Space-Track

ATLAS 5 CENTAUR DEB, 52045 is space debris in HEO originally from a launch on Wed, 17 Oct 2018 UTC launched from the Air Force Eastern Test Range (AFETR). Debris objects in space refer to the collection of defunct objects orbiting the Earth. Examples of debris include non-operational satellites, rocket bodies, and fragments generated from explosions, collisions, or faulty payload assembly.

Loading next visibility...
Identifier
52045, 2018-079GP
Orbit
HEO
Country
Flag of USUS
Related business
Flag of USUnited Launch Alliance/Lockheed Martin (US)
Manufacturer
ULA Decatur
Mission
Spacecraft
Bus & Motor
Unknown
Mass
Unknown
Launch date (UTC)
2018-10-17 (8 years ago)
Launch vehicle
Unknown
Launch site
Air Force Eastern Test Range (AFETR)
Object type
Payload
Rocket body
Debris
Shape & HBR
Unknown shape, 1.1 m
Radar Cross Section
RCS unknown

Expand to show TLE details & history
Last TLE update: 5 days ago

TLE from 5 days ago
0 ATLAS 5 CENTAUR DEB
1 52045U 18079GP  26123.28402823 -.00000084  00000-0  00000-0 0  9997
2 52045  13.2447  62.8302 4567163 251.4317  54.9114  1.72868442 29912
Epoch: 2026-05-03T06:49Z
TLE epoch observation values (Epoch: 2026-05-03T06:49:00.039Z)
Latitude
0.00001°
Longitude
99.275°
Altitude
20,784.881 km
Speed
3.97 km/s
True Right ascension
04h 10m 51s
True Declination
0° 00' 00"
Sunlit
Object was in daylight at epoch
Visualization orbit readout
Latitude
Unknown
Longitude
Unknown
Altitude
Unknown
Speed
Unknown
Apparent Right ascension
Unknown
Apparent Declination
Unknown
Sunlit
N/A
Visualization observer readout
Local Sidereal Time
15:00:33
Azimuth
Unknown
Elevation
Unknown
Doppler factor
Unknown
Orbital elements
Apogee altitude
36,344.926 km
Perigee altitude
9,555.469 km
Semi-major axis
29,328.334 km
Eccentricity
0.45672
Inclination
13.2447°
RAAN
62.8302°
Arg. of periapsis
251.4317°
True anomaly
108.61673°
Mean anomaly
54.9114°
Eccentric anomaly
80.73817°
Mean motion
0.43213 °/min
Orbital period
833.09 mins
BSTAR
0
Loading maneuver chart data...
Computing Atmospheric mass density...

Documentation

Showing up to 5 results
|